sat.trackr.live / text

‹ back to catalog

STARLINK-3391

NORAD 51117 · 2022-005P

PAYLOAD ACTIVE UNKNOWN

§ Identity

Operator
Country
US
Launch date
2022-01-19
Launch site
AFETR
Launch vehicle
Mass (kg)
RCS (m²)

Purposes: comms

External: N2YO · Heavens-Above · Gunter

§ Orbital elements

Epoch: 2026-09-20T03:53:18.379392Z

Period
93.79 min
Inclination
53.1607°
Eccentricity
0.0001208
Mean motion
15.35406550 rev/d
Perigee alt
458.9 km
Apogee alt
460.5 km
Semi-major
6,837.9 km
B*
7.8099e-5
RAAN
127.9027°
Arg perigee
94.3413°
Mean anomaly
265.7728°
Rev number
25,834

§ Raw data

STARLINK-33911 51117U 22005P   26263.16201828  .00002345  00000+0  78099-4 0  99912 51117  53.1607 127.9027 0001208  94.3413 265.7728 15.35406550258345

JSON: /api/v1/satellites/51117 · /tle

For live sub-satellite position, see the globe view (requires WebGL).

§ Visibility from observer

Set your observer location to see the next 7 days of passes ≥ 10°. The values pass through the URL so the page stays shareable.

No JS? Fill the form by hand. The geolocation button needs JavaScript.